TimeAKDT,TemperatureF,Dew PointF,Humidity,Sea Level PressureIn,VisibilityMPH,Wind Direction,Wind SpeedMPH,Gust SpeedMPH,PrecipitationIn,Events,Conditions,WindDirDegrees,DateUTC
12:53 AM,48.0,45.0,89,30.47,10.0,SSE,5.8,-,N/A,,Overcast,150,2013-05-04 08:53:00
1:53 AM,48.0,46.0,93,30.47,10.0,ESE,6.9,-,N/A,,Overcast,120,2013-05-04 09:53:00
2:53 AM,48.9,45.0,86,30.45,10.0,SSE,5.8,-,N/A,,Overcast,150,2013-05-04 10:53:00
3:53 AM,48.9,46.0,90,30.45,10.0,ESE,6.9,-,N/A,,Overcast,120,2013-05-04 11:53:00
4:53 AM,48.0,45.0,89,30.45,10.0,SE,5.8,-,N/A,,Overcast,130,2013-05-04 12:53:00
5:53 AM,48.0,46.0,93,30.46,10.0,SE,4.6,-,N/A,,Overcast,140,2013-05-04 13:53:00
6:53 AM,48.0,46.0,93,30.45,10.0,SE,6.9,-,N/A,,Overcast,130,2013-05-04 14:53:00
7:53 AM,48.0,46.0,93,30.45,10.0,ESE,6.9,-,N/A,,Overcast,120,2013-05-04 15:53:00
8:53 AM,48.0,46.9,96,30.45,10.0,SE,8.1,-,N/A,,Overcast,130,2013-05-04 16:53:00
9:53 AM,48.9,46.9,93,30.44,10.0,SE,6.9,-,N/A,,Overcast,130,2013-05-04 17:53:00
10:53 AM,51.1,46.9,86,30.45,10.0,ESE,6.9,-,N/A,,Overcast,120,2013-05-04 18:53:00
11:53 AM,53.1,46.9,80,30.43,10.0,ESE,9.2,-,N/A,,Overcast,110,2013-05-04 19:53:00
12:53 PM,53.1,46.9,80,30.42,10.0,ESE,9.2,-,N/A,,Overcast,120,2013-05-04 20:53:00
1:53 PM,55.0,48.0,77,30.41,10.0,ESE,9.2,-,N/A,,Overcast,110,2013-05-04 21:53:00
2:53 PM,55.0,48.0,77,30.41,10.0,ESE,5.8,-,N/A,,Overcast,120,2013-05-04 22:53:00
3:53 PM,57.0,48.9,74,30.39,10.0,SE,5.8,-,N/A,,Overcast,130,2013-05-04 23:53:00
4:53 PM,54.0,48.0,80,30.38,10.0,NW,8.1,-,N/A,,Mostly Cloudy,320,2013-05-05 00:53:00
5:53 PM,55.0,48.0,77,30.36,10.0,NNW,5.8,-,N/A,,Scattered Clouds,330,2013-05-05 01:53:00
6:53 PM,52.0,48.0,86,30.34,10.0,NNW,3.5,-,N/A,,Scattered Clouds,330,2013-05-05 02:53:00
7:53 PM,52.0,48.0,86,30.34,10.0,West,3.5,-,N/A,,Scattered Clouds,260,2013-05-05 03:53:00
8:53 PM,50.0,48.0,93,30.33,10.0,Calm,Calm,-,N/A,,Scattered Clouds,0,2013-05-05 04:53:00
9:31 PM,48.2,46.4,93,30.32,10.0,Calm,Calm,-,N/A,,Mostly Cloudy,0,2013-05-05 05:31:00
9:53 PM,48.0,46.0,93,30.33,10.0,Calm,Calm,-,N/A,,Overcast,0,2013-05-05 05:53:00
10:09 PM,46.4,46.4,100,30.32,10.0,Calm,Calm,-,N/A,,Scattered Clouds,0,2013-05-05 06:09:00
10:53 PM,46.0,45.0,96,30.32,10.0,WNW,3.5,-,N/A,,Clear,300,2013-05-05 06:53:00
11:53 PM,46.9,46.0,97,30.31,10.0,WNW,5.8,-,N/A,,Clear,300,2013-05-05 07:53:00